CW7779 Weather Reports


Display with metric or nautical units.
time (UTC)temp
F
wind
direction
speed
MPH
gust
MPH
rain 1hr
in
rain 24hr
in
rain mn
in
humidity
%
barometer
mb
20260906033050 76 239 1.0 7.0 0.00 1.94 1.94 87 1010.4
20260906031549 76 260 2.0 7.0 0.00 1.94 1.94 87 1010.5
20260906030048 76 223 3.0 10.0 0.00 1.94 1.94 87 1010.6
20260906024551 77 233 3.0 11.0 0.00 1.94 1.94 85 1010.9
20260906023047 77 214 4.0 12.0 0.00 1.94 1.94 86 1011.1
20260906021547 76 241 3.0 9.0 0.00 1.94 1.94 85 1011.4
20260906020046 76 214 3.0 11.0 0.00 1.94 1.94 87 1011.5
20260906014617 76 194 3.0 16.0 0.00 1.94 1.94 87 1011.5
20260906013049 75 229 6.0 11.0 0.00 1.94 1.94 86 1011.1
20260906011545 75 196 3.0 12.0 0.01 1.94 1.94 88 1010.9
20260906010050 75 245 3.0 8.0 0.02 1.94 1.94 90 1010.5
20260906004546 75 170 3.0 8.0 0.05 1.94 1.94 90 1010.5
20260906003044 75 168 1.0 3.0 0.07 1.94 1.94 89 1010.7
20260906001543 75 180 0.0 5.0 0.06 1.93 1.93 89 1009.9
20260906000043 75 136 6.0 13.0 0.47 1.92 1.92 89 1009.9
20260905234542 74 126 8.0 15.0 1.89 1.89 1.89 89 1010.4
20260905233045 73 115 7.0 16.0 1.87 1.87 1.87 88 1010.1
20260905231541 74 109 9.0 16.0 1.86 1.86 1.86 86 1010.9
20260905230034 77 23 12.0 23.0 1.33 1.33 1.33 88 1012.7
20260905224533 80 50 6.0 31.0 0.00 0.00 0.00 81 1011.0
20260905223032 82 130 5.0 24.0 0.00 0.00 0.00 78 1008.3
20260905221533 82 147 10.0 24.0 0.00 0.00 0.00 75 1009.2
20260905220030 85 200 3.0 13.0 0.00 0.00 0.00 81 1008.9
20260905214531 86 210 6.0 13.0 0.00 0.00 0.00 80 1008.7
20260905213029 86 236 5.0 15.0 0.00 0.00 0.00 78 1008.8
20260905211537 88 221 5.0 14.0 0.00 0.00 0.00 76 1008.7
20260905210033 89 222 7.0 16.0 0.00 0.00 0.00 74 1008.7
20260905204530 89 206 5.0 13.0 0.00 0.00 0.00 73 1008.4
20260905203028 89 153 5.0 12.0 0.00 0.00 0.00 74 1008.2
20260905201527 88 203 4.0 13.0 0.00 0.00 0.00 76 1008.3
20260905200028 88 209 4.0 10.0 0.00 0.00 0.00 77 1008.6
20260905194526 89 173 4.0 15.0 0.00 0.00 0.00 76 1008.9
20260905193025 90 192 6.0 14.0 0.00 0.00 0.00 74 1008.9
20260905191524 90 209 4.0 13.0 0.00 0.00 0.00 74 1009.3
20260905190024 91 242 8.0 14.0 0.00 0.00 0.00 71 1009.4
20260905184534 92 187 6.0 12.0 0.00 0.00 0.00 71 1010.0
20260905183021 90 151 6.0 13.0 0.00 0.00 0.00 73 1010.3
20260905181520 91 199 3.0 10.0 0.00 0.00 0.00 70 1010.4
20260905180019 92 200 5.0 11.0 0.00 0.00 0.00 69 1010.6
20260905174518 92 208 9.0 15.0 0.00 0.00 0.00 67 1010.6
20260905173018 95 192 3.0 7.0 0.00 0.00 0.00 64 1010.9
20260905171517 94 257 1.0 7.0 0.00 0.00 0.00 64 1011.0
20260905170014 94 204 0.0 10.0 0.00 0.00 0.00 62 1011.3
20260905164512 93 194 3.0 8.0 0.00 0.00 0.00 65 1011.5
20260905163011 93 346 2.0 11.0 0.00 0.00 0.00 61 1011.8
20260905161512 93 259 4.0 10.0 0.00 0.00 0.00 61 1012.0
20260905160007 92 235 3.0 11.0 0.00 0.00 0.00 64 1012.0
20260905154505 91 347 4.0 10.0 0.00 0.00 0.00 66 1012.0
20260905153005 91 252 4.0 15.0 0.00 0.00 0.00 66 1012.0
20260905151502 90 249 3.0 12.0 0.00 0.00 0.00 70 1012.0
20260905150059 89 246 5.0 12.0 0.00 0.00 0.00 70 1012.0
20260905144557 89 277 4.0 9.0 0.00 0.00 0.00 70 1012.1
20260905143054 88 165 2.0 10.0 0.00 0.00 0.00 72 1012.4
20260905141555 87 284 3.0 12.0 0.00 0.00 0.00 74 1012.3
20260905140049 86 275 4.0 12.0 0.00 0.00 0.00 75 1012.3
20260905134549 85 271 3.0 9.0 0.00 0.00 0.00 78 1012.5
20260905133042 84 265 2.0 6.0 0.00 0.00 0.00 79 1012.4
20260905131541 83 312 2.0 7.0 0.00 0.00 0.00 81 1012.5
20260905130037 82 267 3.0 8.0 0.00 0.00 0.00 82 1012.5
20260905124535 82 263 1.0 6.0 0.00 0.00 0.00 83 1012.5
20260905123035 81 236 2.0 8.0 0.00 0.00 0.00 84 1012.5
20260905121533 81 264 2.0 11.0 0.00 0.00 0.00 84 1012.5
20260905120031 80 252 1.0 6.0 0.00 0.00 0.00 85 1012.5
20260905114533 80 254 2.0 9.0 0.00 0.00 0.00 86 1012.5
20260905113030 79 265 4.0 9.0 0.00 0.00 0.00 86 1012.4
20260905111530 79 238 2.0 7.0 0.00 0.00 0.00 86 1012.4
20260905110029 79 232 2.0 7.0 0.00 0.00 0.00 87 1012.2
20260905104533 79 250 3.0 6.0 0.00 0.00 0.00 87 1012.0
20260905103032 79 274 1.0 6.0 0.00 0.00 0.00 88 1012.0
20260905101533 79 253 2.0 8.0 0.00 0.00 0.00 87 1011.7
20260905100035 79 236 0.0 6.0 0.00 0.00 0.00 87 1011.9
20260905094527 79 262 1.0 7.0 0.00 0.00 0.00 87 1012.0
20260905093027 79 277 1.0 8.0 0.00 0.00 0.00 88 1011.8
20260905091526 79 254 2.0 7.0 0.00 0.00 0.00 87 1012.0
20260905090026 79 253 2.0 7.0 0.00 0.00 0.00 87 1012.0
20260905084524 79 243 3.0 7.0 0.00 0.00 0.00 86 1012.0
20260905083027 79 255 2.0 6.0 0.00 0.00 0.00 85 1012.0
20260905081524 79 249 1.0 8.0 0.00 0.00 0.00 85 1012.0
20260905080032 79 262 4.0 9.0 0.00 0.00 0.00 85 1012.1
20260905074522 79 259 3.0 7.0 0.00 0.00 0.00 85 1012.5
20260905073024 79 258 3.0 6.0 0.00 0.00 0.00 85 1012.5
20260905071519 79 258 2.0 4.0 0.00 0.00 0.00 84 1012.5
20260905070029 79 261 2.0 6.0 0.00 0.00 0.00 84 1012.8
20260905064516 79 292 0.0 4.0 0.00 0.00 0.00 84 1012.9
20260905063016 79 264 1.0 5.0 0.00 0.00 0.00 85 1012.6
20260905061514 79 241 2.0 5.0 0.00 0.00 0.00 84 1013.0
20260905060013 79 255 0.0 3.0 0.00 0.00 0.00 83 1013.1
20260905054532 80 265 0.0 4.0 0.00 0.00 0.00 83 1013.1
20260905053010 80 274 0.0 5.0 0.00 0.00 0.00 83 1013.4
20260905051514 80 262 1.0 5.0 0.00 0.00 0.00 82 1013.4
20260905050008 80 227 2.0 7.0 0.00 0.00 0.00 81 1013.4
20260905044507 81 215 1.0 6.0 0.00 0.00 0.00 80 1013.6
20260905043006 81 193 3.0 5.0 0.00 0.00 0.00 79 1015.0
20260905041503 81 358 1.0 4.0 0.00 0.00 0.00 78 1015.3
20260905040100 82 49 1.0 4.0 0.00 0.00 0.00 78 1015.3
20260905034600 82 59 2.0 6.0 0.00 0.00 0.00 80 1015.6